MET'MAP v2.0
soon released !

Expected late october,
this new version will be
more efficient, smarter,
and hosted on a brand new
server x3 powerfull...
...and still free !


Not compatible ?
Try the mobile version !

LOG IN : | Subscribe | Disclaimer | Who is Orbifly ? |
ICAO code :

TAF - LFBC Cazaux - 04 Jun 2020 10:19 UTC
Data Sources :     NOAA   


- Airport Elevation : 84 ft
- No reported NOTAMs.


LFBC - Cazaux

Latest METAR recorded : 2020/06/04 08:00 LFBC 040800Z AUTO 28009KT 250V310 9999 SCT028 BKN049 BKN064 19/13 Q1002 TEMPO VRB15G30KT 2000 TSRA BKN014 BKN015CB
NO TAF


MET'MAP, your aeronautical weather chart ! - Copyright ORBIFLY December 2007

Programming & Development : Alexandra Zaïnal
Co-Developer : Marc-Olivier Méhu
Technical & hardware support : Manuel Goepfert
Concept & Financing : Baudouin d'Aumeries